EN

Hourly Weather Nurobod

Today, 18 May, Tuesday

Time Temperature Precipitation Wind Pressure Humidity
00:00 +24°C° 0 mm 2 mps 714 mmHg 16%
01:00 +24°C° 0 mm 2 mps 714 mmHg 16%
02:00 +23°C° 0 mm 2 mps 714 mmHg 18%
03:00 +23°C° 0 mm 2 mps 714 mmHg 19%
04:00 +22°C° 0 mm 1 mps 713 mmHg 20%
05:00 +24°C° 0 mm 1 mps 714 mmHg 19%
06:00 +26°C° 0 mm 1 mps 714 mmHg 17%
07:00 +28°C° 0 mm 1 mps 715 mmHg 16%
08:00 +30°C° 0 mm 1 mps 715 mmHg 14%
09:00 +31°C° 0 mm 2 mps 715 mmHg 11%
10:00 +34°C° 0 mm 3 mps 715 mmHg 9%
11:00 +35°C° 0 mm 4 mps 715 mmHg 8%
12:00 +36°C° 0 mm 4 mps 714 mmHg 8%
13:00 +36°C° 0 mm 5 mps 714 mmHg 7%
14:00 +36°C° 0 mm 5 mps 714 mmHg 7%
15:00 +36°C° 0 mm 5 mps 714 mmHg 7%
16:00 +36°C° 0 mm 5 mps 713 mmHg 7%
17:00 +34°C° 0 mm 4 mps 713 mmHg 9%
18:00 +31°C° 0 mm 3 mps 713 mmHg 10%
19:00 +28°C° 0 mm 2 mps 713 mmHg 11%
20:00 +28°C° 0 mm 2 mps 713 mmHg 12%
21:00 +27°C° 0 mm 2 mps 713 mmHg 13%
22:00 +26°C° 0 mm 2 mps 713 mmHg 14%
23:00 +25°C° 0 mm 2 mps 713 mmHg 14%

Tomorrow, 19 May, Wednesday

Time Temperature Precipitation Wind Pressure Humidity
00:00 +24°C° 0 mm 2 mps 712 mmHg 15%
01:00 +24°C° 0 mm 2 mps 712 mmHg 16%
02:00 +23°C° 0 mm 2 mps 712 mmHg 17%
03:00 +23°C° 0 mm 1 mps 712 mmHg 18%
04:00 +22°C° 0 mm 1 mps 712 mmHg 19%
05:00 +24°C° 0 mm 1 mps 712 mmHg 17%
06:00 +26°C° 0 mm 1 mps 713 mmHg 16%
07:00 +29°C° 0 mm 1 mps 714 mmHg 14%
08:00 +30°C° 0 mm 2 mps 714 mmHg 13%
09:00 +33°C° 0 mm 3 mps 714 mmHg 11%
10:00 +35°C° 0 mm 3 mps 714 mmHg 9%
11:00 +35°C° 0 mm 3 mps 714 mmHg 8%
12:00 +36°C° 0 mm 3 mps 714 mmHg 8%
13:00 +36°C° 0 mm 3 mps 713 mmHg 8%
14:00 +36°C° 0 mm 3 mps 713 mmHg 7%
15:00 +36°C° 0 mm 2 mps 713 mmHg 7%
16:00 +36°C° 0 mm 2 mps 713 mmHg 7%
17:00 +34°C° 0 mm 2 mps 713 mmHg 8%
18:00 +31°C° 0 mm 2 mps 713 mmHg 10%
19:00 +30°C° 0 mm 2 mps 712 mmHg 11%
20:00 +29°C° 0 mm 1 mps 713 mmHg 12%
21:00 +28°C° 0 mm 1 mps 713 mmHg 13%
22:00 +27°C° 0 mm 1 mps 713 mmHg 14%
23:00 +27°C° 0 mm 2 mps 713 mmHg 14%

Day after tomorrow, 20 May, Thursday

Time Temperature Precipitation Wind Pressure Humidity
00:00 +26°C° 0 mm 2 mps 712 mmHg 15%
01:00 +26°C° 0 mm 2 mps 712 mmHg 15%
02:00 +25°C° 0 mm 2 mps 712 mmHg 15%
03:00 +25°C° 0 mm 2 mps 713 mmHg 16%
04:00 +24°C° 0 mm 2 mps 713 mmHg 17%
05:00 +26°C° 0 mm 3 mps 713 mmHg 16%
06:00 +28°C° 0 mm 3 mps 714 mmHg 16%
07:00 +29°C° 0 mm 3 mps 714 mmHg 16%
08:00 +31°C° 0 mm 3 mps 715 mmHg 14%
09:00 +34°C° 0 mm 4 mps 715 mmHg 13%
10:00 +35°C° 0 mm 4 mps 715 mmHg 11%
11:00 +36°C° 0 mm 4 mps 715 mmHg 10%
12:00 +37°C° 0 mm 4 mps 715 mmHg 10%
13:00 +37°C° 0 mm 4 mps 715 mmHg 9%
14:00 +38°C° 0 mm 6 mps 715 mmHg 11%
15:00 +36°C° 0 mm 7 mps 715 mmHg 12%
16:00 +37°C° 0 mm 9 mps 715 mmHg 13%
17:00 +34°C° 0 mm 7 mps 715 mmHg 15%
18:00 +32°C° 0 mm 6 mps 715 mmHg 17%
19:00 +29°C° 0 mm 4 mps 715 mmHg 19%
20:00 +29°C° 0 mm 3 mps 715 mmHg 19%
21:00 +28°C° 0 mm 3 mps 715 mmHg 19%
22:00 +27°C° 0 mm 2 mps 715 mmHg 20%
23:00 +27°C° 0 mm 3 mps 715 mmHg 21%

21 May, Friday

Time Temperature Precipitation Wind Pressure Humidity
00:00 +26°C° 0 mm 3 mps 715 mmHg 22%
01:00 +25°C° 0 mm 3 mps 715 mmHg 23%
02:00 +25°C° 0 mm 3 mps 715 mmHg 24%
03:00 +25°C° 0 mm 3 mps 716 mmHg 24%
04:00 +24°C° 0 mm 3 mps 716 mmHg 25%
05:00 +26°C° 0 mm 3 mps 716 mmHg 24%
06:00 +28°C° 0 mm 3 mps 717 mmHg 22%
07:00 +30°C° 0 mm 2 mps 717 mmHg 21%
08:00 +31°C° 0 mm 3 mps 717 mmHg 19%
09:00 +33°C° 0 mm 4 mps 717 mmHg 17%
10:00 +35°C° 0 mm 4 mps 717 mmHg 15%
11:00 +35°C° 0 mm 4 mps 717 mmHg 15%
12:00 +35°C° 0 mm 5 mps 716 mmHg 15%
13:00 +36°C° 0 mm 5 mps 716 mmHg 14%
14:00 +34°C° 0.1 mm 6 mps 716 mmHg 20%
15:00 +30°C° 0.1 mm 7 mps 716 mmHg 25%
16:00 +28°C° 0.1 mm 8 mps 716 mmHg 31%
17:00 +27°C° 0.1 mm 7 mps 716 mmHg 33%
18:00 +25°C° 0.1 mm 5 mps 716 mmHg 36%
19:00 +23°C° 0.1 mm 4 mps 717 mmHg 39%
20:00 +23°C° 0 mm 4 mps 717 mmHg 39%
21:00 +22°C° 0 mm 3 mps 716 mmHg 39%
22:00 +22°C° 0 mm 3 mps 716 mmHg 40%
23:00 +22°C° 0 mm 3 mps 716 mmHg 40%

22 May, Saturday

Time Temperature Precipitation Wind Pressure Humidity
00:00 +22°C° 0 mm 3 mps 716 mmHg 41%
01:00 +21°C° 0 mm 3 mps 715 mmHg 41%
02:00 +21°C° 0 mm 3 mps 715 mmHg 41%
03:00 +21°C° 0 mm 3 mps 715 mmHg 42%
04:00 +20°C° 0 mm 3 mps 715 mmHg 42%
05:00 +22°C° 0 mm 3 mps 715 mmHg 39%
06:00 +24°C° 0 mm 3 mps 716 mmHg 35%
07:00 +26°C° 0 mm 3 mps 716 mmHg 32%
08:00 +27°C° 0 mm 3 mps 716 mmHg 28%
09:00 +29°C° 0 mm 3 mps 716 mmHg 24%
10:00 +30°C° 0 mm 3 mps 716 mmHg 21%
11:00 +31°C° 0 mm 3 mps 716 mmHg 19%
12:00 +33°C° 0 mm 3 mps 715 mmHg 17%
13:00 +34°C° 0 mm 2 mps 715 mmHg 15%
14:00 +33°C° 0 mm 4 mps 715 mmHg 15%
15:00 +33°C° 0 mm 5 mps 715 mmHg 15%
16:00 +33°C° 0 mm 6 mps 715 mmHg 15%
17:00 +32°C° 0 mm 5 mps 715 mmHg 16%
18:00 +29°C° 0 mm 5 mps 715 mmHg 18%
19:00 +27°C° 0 mm 5 mps 714 mmHg 19%
20:00 +27°C° 0 mm 4 mps 714 mmHg 20%
21:00 +26°C° 0 mm 3 mps 714 mmHg 21%
22:00 +25°C° 0 mm 2 mps 714 mmHg 23%
23:00 +25°C° 0 mm 2 mps 714 mmHg 22%

23 May, Sunday

Time Temperature Precipitation Wind Pressure Humidity
00:00 +25°C° 0 mm 2 mps 714 mmHg 22%
01:00 +25°C° 0 mm 2 mps 713 mmHg 22%
02:00 +24°C° 0 mm 2 mps 713 mmHg 24%
03:00 +23°C° 0 mm 2 mps 713 mmHg 26%
04:00 +23°C° 0 mm 2 mps 713 mmHg 28%
05:00 +24°C° 0 mm 2 mps 714 mmHg 28%
06:00 +25°C° 0 mm 2 mps 714 mmHg 27%
07:00 +27°C° 0 mm 2 mps 714 mmHg 26%
08:00 +28°C° 0 mm 2 mps 715 mmHg 24%
09:00 +30°C° 0 mm 2 mps 715 mmHg 22%
10:00 +31°C° 0 mm 3 mps 715 mmHg 19%
11:00 +33°C° 0 mm 3 mps 714 mmHg 18%
12:00 +34°C° 0 mm 3 mps 714 mmHg 17%
13:00 +35°C° 0 mm 3 mps 714 mmHg 16%
14:00 +35°C° 0 mm 3 mps 714 mmHg 15%
15:00 +35°C° 0 mm 2 mps 713 mmHg 14%
16:00 +35°C° 0 mm 2 mps 713 mmHg 13%
17:00 +32°C° 0 mm 2 mps 713 mmHg 15%
18:00 +30°C° 0 mm 2 mps 713 mmHg 18%
19:00 +28°C° 0 mm 2 mps 713 mmHg 20%
20:00 +27°C° 0 mm 2 mps 713 mmHg 22%
21:00 +27°C° 0 mm 2 mps 713 mmHg 24%
22:00 +26°C° 0 mm 2 mps 713 mmHg 26%
23:00 +25°C° 0 mm 2 mps 713 mmHg 27%
Show more

We Need Your Consent

Meteoprog and our Service Providers may store and access personal data such as cookies, device identifiers or other similar technologies on your device and process such data to personalise content and ads, as well as provide social media features and to analyse the traffic.

  • Store and/or access information on your device

    Cookies, device identifiers or other information can be stored or accessed on your device for the purposes indicated above.

  • Personalised ads and content, ad and content measurement, audience insights, and products development

    Ads and content can be personalised based on a profile. More data can be added to better personalise ads and content. Ad and content performance can be measured. Insights about the audience who saw the ads and content can be derived. Such data can be used to develop or improve user’s experience, systems and software.

By clicking ‘I Agree’ you will allow the use of indicated cookies, device identifiers, web beacons or other similar technologies. Your settings can be changed in the browser on your device.

For certain purposes, legitimate interests may be relied on, rather than consent. You can read more about this in our Privacy and Cookie Policy.